Regional Weather Roundup
Issued by NWS

Home | Current Version | Previous Version | Graphics & Text | Print | Product List | Glossary On
Versions: 1 2 3 4 5 6 7 8 9 10 11 12 13 14 15 16 17 18 19 20 21 22 23 24 25 26 27 28 29 30 31 32 33 34 35 36 37 38 39 40 41 42 43 44 45 46 47 48 49 50
009
ASUS43 KIND 280609
RWRIN

WEATHER ROUNDUP FOR INDIANA
NATIONAL WEATHER SERVICE INDIANAPOLIS IN
200 AM EDT TUE MAR 28 2017

NOTE: "FAIR" INDICATES FEW OR NO CLOUDS BELOW 12,000 FEET WITH NO
SIGNIFICANT WEATHER AND/OR OBSTRUCTIONS TO VISIBILITY.

* - STATION DOES NOT REPORT WEATHER SUCH AS PRECIPITATION OR FOG.

+ - STATION NOT QUALITY CONTROLLED BY THE NATIONAL WEATHER SERVICE.
    USE DATA WITH CAUTION...ESPECIALLY DEWPOINT AND RELATIVE
    HUMIDITY OBSERVATIONS.

INZ001>003-010>013-019-020-280700-
NORTHWEST INDIANA

CITY           SKY/WX    TMP DP  RH WIND       PRES   REMARKS
GARY /AIRPORT/ PTCLDY    40  37  90 N10       29.98S FOG
KNOX *+        PTCLDY    41  28  60 N13       29.93S
LA PORTE +     MOCLDY    39  37  90 N9        29.94S
6HR MIN TEMP:  39; 6HR MAX TEMP:  45;

MICHIGAN CITY+ CLOUDY    37  37 100 N5        29.97S
MONTICELLO +   CLOUDY    48  46  93 N8        29.89F
6HR MIN TEMP:  48; 6HR MAX TEMP:  56;

RENSSELAER +   CLOUDY    43  41  93 N10       29.92F
VALPARAISO     CLOUDY    40  37  89 N8        29.95S
6HR MIN TEMP:  40; 6HR MAX TEMP:  45;


$$

LMZ046-743>745-280700-
SOUTHERN LAKE MICHIGAN

STATION/POSITION TIME  TEMP    WIND        PRES    WAVE
                       AIR SEA DIR/SP/G            HT
                 (UTC) (F)     (DEG/KT/KT) (MB)    (FT)
BURNS HARBOR     0540   39     340/  9/ 12 1015.2F
MICHIGAN CITY    0540   38     330/  8/  9   N/A

$$

INZ004-005-014>016-021>024-280700-
NORTH CENTRAL INDIANA

CITY           SKY/WX    TMP DP  RH WIND       PRES   REMARKS
GOSHEN         CLOUDY    49  44  83 N9        29.90F
6HR MIN TEMP:  49; 6HR MAX TEMP:  55; 6HR PCP: TRACE;

LOGANSPORT +   CLOUDY    50  46  87 N12       29.89F FOG
PERU/GRISSOM   CLOUDY    53  53 100 N9        29.87S
6HR MIN TEMP:  53; 6HR MAX TEMP:  56; 6HR PCP:  0.06;

ROCHESTER +    CLOUDY    52  48  87 N8        29.90S FOG
SOUTH BEND     CLOUDY    41  38  89 N10       29.94S
6HR MIN TEMP:  41; 6HR MAX TEMP:  47;

WARSAW +       CLOUDY    48  46  93 N8        29.89F

$$

INZ006>009-017-018-025>027-280700-
NORTHEAST INDIANA

CITY           SKY/WX    TMP DP  RH WIND       PRES   REMARKS
ANGOLA *+      CLOUDY    48  48 100 N6        29.89F
AUBURN +       CLOUDY    52  46  82 N6        29.89S
FORT WAYNE     LGT RAIN  53  50  89 N7        29.87S
6HR MIN TEMP:  53; 6HR MAX TEMP:  57; 6HR PCP: TRACE;

HUNTINGTON +   LGT RAIN  52  51  96 N6        29.87S
6HR MIN TEMP:  52; 6HR MAX TEMP:  56; 6HR PCP:  0.04;

KENDALLVILLE + CLOUDY    49  48  95 N9        29.89F

$$

INZ028-029-035-036-043>045-051>053-280700-
WEST CENTRAL INDIANA

CITY           SKY/WX    TMP DP  RH WIND       PRES   REMARKS
CRAWFORDSVL +  DRIZZLE   51  51 100 N10       29.87F
6HR MIN TEMP:  51; 6HR MAX TEMP:  55; 6HR PCP:  0.08;

GREENCASTLE +  CLOUDY    54  54 100 N9        29.86S FOG
LAFAYETTE      CLOUDY    49  48  97 N10       29.88F FOG
6HR MIN TEMP:  49; 6HR MAX TEMP:  55; 6HR PCP:  0.05;

TERRE HAUTE    CLOUDY    56  53  90 N10       29.86S
6HR MIN TEMP:  56; 6HR MAX TEMP:  59; 6HR PCP:  0.05;


$$

INZ030>032-037>040-046>048-054>057-064-065-280700-
CENTRAL INDIANA

CITY           SKY/WX    TMP DP  RH WIND       PRES   REMARKS
CP ATTERBURY + CLOUDY    55  54  94 CALM      29.84F
FRANKFORT +    CLOUDY    55  54  95 N10       29.89S FOG
6HR MIN TEMP:  55; 6HR MAX TEMP:  58; 6HR PCP:  0.02;

GREENWOOD *+   CLOUDY    56  56  99 N3        29.85S
INDIANAPOLIS   LGT RAIN  55  54  96 N9        29.85S FOG
6HR MIN TEMP:  55; 6HR MAX TEMP:  60; 6HR PCP:  0.12;

-EAGLE CREEK   LGT RAIN  56  53  90 N8        29.85S FOG
6HR MIN TEMP:  56; 6HR MAX TEMP:  60; 6HR PCP:  0.26;

KOKOMO +       LGT RAIN  53  51  93 N10       29.88S
6HR MIN TEMP:  53; 6HR MAX TEMP:  56; 6HR PCP:  0.04;

MARION +       LGT RAIN  53  51  95 N8        29.88R
MT COMFORT *+  CLOUDY    54  54 100 N8        29.85S
SHELBYVILLE    LGT RAIN  56  53  90 SW6       29.83S
6HR MIN TEMP:  56; 6HR MAX TEMP:  62; 6HR PCP:  0.15;

ZIONSVILLE +   DRIZZLE   53  52  97 N9        29.87S
6HR MIN TEMP:  53; 6HR MAX TEMP:  56; 6HR PCP:  0.02;


$$

INZ033-034-041-042-049-050-058-059-280700-
EAST CENTRAL INDIANA

CITY           SKY/WX    TMP DP  RH WIND       PRES   REMARKS
MUNCIE         LGT RAIN  55  53  93 NE9       29.85S FOG
6HR MIN TEMP:  55; 6HR MAX TEMP:  60; 6HR PCP:  0.65;

RICHMOND +     LGT RAIN  54  54 100 W3        29.84S

$$

INZ060-061-067>069-081>083-085>088-280700-
SOUTHWEST INDIANA

CITY           SKY/WX    TMP DP  RH WIND       PRES   REMARKS
EVANSVILLE     CLOUDY    56  51  84 W3        29.86S
6HR MIN TEMP:  55; 6HR MAX TEMP:  60; 6HR PCP: TRACE;

HUNTINGBURG *+ PTCLDY    55  54  96 W3        29.85S
6HR MIN TEMP:  54; 6HR MAX TEMP:  57;

WASHINGTON +   CLOUDY    56  54  93 MISG      29.84S
6HR MIN TEMP:  55; 6HR MAX TEMP:  60;


$$

INZ062-063-066-070>080-084-089>092-280700-
SOUTH CENTRAL AND SOUTHEAST INDIANA

CITY           SKY/WX    TMP DP  RH WIND       PRES   REMARKS
BEDFORD +      DRIZZLE   55  52  88 CALM      29.84S
BLOOMINGTON    LGT RAIN  56  53  90 CALM      29.84S
6HR MIN TEMP:  55; 6HR MAX TEMP:  59; 6HR PCP:  0.44;

MADISON *+     CLOUDY    55  54  94 S3        29.86S
NORTH VERNON + CLOUDY   N/A N/A N/A S5        29.85S
SEYMOUR +      CLOUDY    55  55 100 SW3       29.83F

$$





USA.gov is the U.S. government's official web portal to all federal, state and local government web resources and services.